When you browse on this site, cookies collect data to enhance your experience and personalize the content and advertising you see.
Visit our Privacy Policy to learn more. By continuing to use the site, you agree to this use of cookies and data.
  • în România
  • Lista ţărilor
  • Pe 7 zile
  • Temperatura apei
  • Hartă satelitară
  • Meteo pe hartă
  • Widget-uri
  • user-avatar
    Intrare

    Meteo pe oră la Ereshkino

    Astăzi, 17 Ianuarie, Joi

    Timp Temperatura Precipitaţii Vânt Presiune Umiditate
    00:00 -9°C° 0 mm 3 m/s 728 mmHg 90%
    01:00 -9°C° 0 mm 3 m/s 729 mmHg 90%
    02:00 -10°C° 0 mm 3 m/s 729 mmHg 90%
    03:00 -12°C° 0 mm 3 m/s 729 mmHg 92%
    04:00 -12°C° 0 mm 3 m/s 729 mmHg 93%
    05:00 -13°C° 0 mm 3 m/s 728 mmHg 95%
    06:00 -12°C° 0.1 mm 4 m/s 728 mmHg 93%
    07:00 -11°C° 0.1 mm 4 m/s 727 mmHg 92%
    08:00 -11°C° 0.1 mm 5 m/s 727 mmHg 90%
    09:00 -10°C° 0.5 mm 5 m/s 726 mmHg 90%
    10:00 -8°C° 0.5 mm 5 m/s 725 mmHg 90%
    11:00 -8°C° 0.5 mm 6 m/s 725 mmHg 90%
    12:00 -6°C° 0.4 mm 6 m/s 724 mmHg 89%
    13:00 -4°C° 0.4 mm 6 m/s 724 mmHg 88%
    14:00 -3°C° 0.4 mm 6 m/s 723 mmHg 87%
    15:00 -3°C° 0.1 mm 6 m/s 723 mmHg 86%
    16:00 -2°C° 0.1 mm 6 m/s 722 mmHg 85%
    17:00 -2°C° 0.1 mm 6 m/s 722 mmHg 84%
    18:00 -2°C° 0.4 mm 6 m/s 721 mmHg 84%
    19:00 -2°C° 0.4 mm 6 m/s 720 mmHg 85%
    20:00 -2°C° 0.4 mm 7 m/s 720 mmHg 85%
    21:00 -2°C° 0.1 mm 6 m/s 720 mmHg 85%
    22:00 -2°C° 0.1 mm 6 m/s 720 mmHg 85%
    23:00 -2°C° 0.1 mm 6 m/s 720 mmHg 85%

    Mâine, 18 Ianuarie, Vineri

    Timp Temperatura Precipitaţii Vânt Presiune Umiditate
    00:00 -2°C° 0.3 mm 6 m/s 721 mmHg 85%
    01:00 -2°C° 0.3 mm 6 m/s 721 mmHg 86%
    02:00 -1°C° 0.3 mm 5 m/s 722 mmHg 87%
    03:00 -1°C° 0.3 mm 5 m/s 723 mmHg 88%
    04:00 -2°C° 0.3 mm 4 m/s 723 mmHg 88%
    05:00 -2°C° 0.3 mm 4 m/s 724 mmHg 88%
    06:00 -2°C° 0.1 mm 3 m/s 725 mmHg 89%
    07:00 -4°C° 0.1 mm 3 m/s 725 mmHg 91%
    08:00 -4°C° 0.1 mm 3 m/s 726 mmHg 92%
    09:00 -4°C° 0.1 mm 3 m/s 727 mmHg 91%
    10:00 -5°C° 0.1 mm 3 m/s 727 mmHg 91%
    11:00 -5°C° 0.1 mm 3 m/s 728 mmHg 91%
    12:00 -4°C° 0.1 mm 2 m/s 728 mmHg 91%
    13:00 -5°C° 0.1 mm 2 m/s 728 mmHg 91%
    14:00 -5°C° 0.1 mm 2 m/s 729 mmHg 91%
    15:00 -4°C° 0.1 mm 1 m/s 728 mmHg 92%
    16:00 -4°C° 0.1 mm 1 m/s 728 mmHg 94%
    17:00 -6°C° 0.1 mm 1 m/s 728 mmHg 95%
    18:00 -7°C° 0.7 mm 2 m/s 728 mmHg 95%
    19:00 -8°C° 0.7 mm 2 m/s 728 mmHg 95%
    20:00 -9°C° 0.7 mm 3 m/s 727 mmHg 96%
    21:00 -10°C° 0.5 mm 3 m/s 727 mmHg 95%
    22:00 -10°C° 0.5 mm 3 m/s 728 mmHg 94%
    23:00 -9°C° 0.5 mm 2 m/s 728 mmHg 94%

    Poimâine, 19 Ianuarie, Sâmbătă

    Timp Temperatura Precipitaţii Vânt Presiune Umiditate
    00:00 -10°C° 0 mm 2 m/s 729 mmHg 93%
    01:00 -13°C° 0 mm 3 m/s 729 mmHg 92%
    02:00 -13°C° 0 mm 3 m/s 730 mmHg 91%
    03:00 -13°C° 0 mm 3 m/s 731 mmHg 91%
    04:00 -13°C° 0 mm 3 m/s 731 mmHg 91%
    05:00 -12°C° 0 mm 3 m/s 732 mmHg 91%
    06:00 -12°C° 0 mm 3 m/s 732 mmHg 91%
    07:00 -12°C° 0 mm 3 m/s 733 mmHg 91%
    08:00 -12°C° 0 mm 3 m/s 733 mmHg 91%
    09:00 -10°C° 0 mm 3 m/s 733 mmHg 89%
    10:00 -9°C° 0 mm 3 m/s 734 mmHg 88%
    11:00 -9°C° 0 mm 4 m/s 734 mmHg 86%
    12:00 -9°C° 0.1 mm 4 m/s 734 mmHg 86%
    13:00 -8°C° 0.1 mm 4 m/s 735 mmHg 86%
    14:00 -8°C° 0.1 mm 4 m/s 735 mmHg 86%
    15:00 -8°C° 0 mm 4 m/s 735 mmHg 86%
    16:00 -9°C° 0 mm 4 m/s 735 mmHg 87%
    17:00 -9°C° 0 mm 4 m/s 735 mmHg 87%
    18:00 -9°C° 0.1 mm 4 m/s 735 mmHg 88%
    19:00 -9°C° 0.1 mm 4 m/s 735 mmHg 89%
    20:00 -8°C° 0.1 mm 4 m/s 736 mmHg 90%
    21:00 -8°C° 0.1 mm 3 m/s 736 mmHg 90%
    22:00 -8°C° 0.1 mm 3 m/s 736 mmHg 90%
    23:00 -8°C° 0.1 mm 3 m/s 737 mmHg 91%

    20 Ianuarie, Duminică

    Timp Temperatura Precipitaţii Vânt Presiune Umiditate
    00:00 -8°C° 0 mm 3 m/s 737 mmHg 91%
    01:00 -8°C° 0 mm 3 m/s 737 mmHg 91%
    02:00 -8°C° 0 mm 3 m/s 737 mmHg 92%
    03:00 -9°C° 0 mm 3 m/s 737 mmHg 92%
    04:00 -9°C° 0 mm 3 m/s 737 mmHg 92%
    05:00 -9°C° 0 mm 3 m/s 737 mmHg 92%
    06:00 -9°C° 0 mm 3 m/s 737 mmHg 91%
    07:00 -10°C° 0 mm 4 m/s 737 mmHg 91%
    08:00 -10°C° 0 mm 4 m/s 737 mmHg 90%
    09:00 -10°C° 0 mm 4 m/s 737 mmHg 89%
    10:00 -9°C° 0 mm 4 m/s 737 mmHg 88%
    11:00 -8°C° 0 mm 4 m/s 737 mmHg 88%
    12:00 -8°C° 0 mm 4 m/s 737 mmHg 88%
    13:00 -8°C° 0 mm 4 m/s 737 mmHg 88%
    14:00 -8°C° 0 mm 4 m/s 737 mmHg 88%
    15:00 -8°C° 0 mm 3 m/s 737 mmHg 89%
    16:00 -8°C° 0 mm 3 m/s 737 mmHg 91%
    17:00 -8°C° 0 mm 2 m/s 737 mmHg 92%
    18:00 -8°C° 0 mm 2 m/s 737 mmHg 93%
    19:00 -9°C° 0 mm 2 m/s 737 mmHg 94%
    20:00 -9°C° 0 mm 2 m/s 737 mmHg 95%
    21:00 -10°C° 0 mm 2 m/s 737 mmHg 95%
    22:00 -12°C° 0 mm 2 m/s 737 mmHg 96%
    23:00 -12°C° 0 mm 2 m/s 737 mmHg 96%

    21 Ianuarie, Luni

    Timp Temperatura Precipitaţii Vânt Presiune Umiditate
    00:00 -13°C° 0 mm 2 m/s 737 mmHg 96%
    01:00 -13°C° 0 mm 2 m/s 736 mmHg 96%
    02:00 -14°C° 0 mm 2 m/s 736 mmHg 96%
    03:00 -11°C° 0.3 mm 1 m/s 736 mmHg 96%
    04:00 -10°C° 0.3 mm 1 m/s 735 mmHg 97%
    05:00 -9°C° 0.3 mm 1 m/s 735 mmHg 97%
    06:00 -9°C° 0.3 mm 1 m/s 735 mmHg 97%
    07:00 -9°C° 0.3 mm 1 m/s 735 mmHg 97%
    08:00 -8°C° 0.3 mm 1 m/s 734 mmHg 97%
    09:00 -9°C° 0.1 mm 2 m/s 735 mmHg 97%
    10:00 -9°C° 0.1 mm 2 m/s 735 mmHg 96%
    11:00 -10°C° 0.1 mm 3 m/s 735 mmHg 95%
    12:00 -11°C° 0 mm 4 m/s 735 mmHg 93%
    13:00 -11°C° 0 mm 4 m/s 736 mmHg 91%
    14:00 -12°C° 0 mm 4 m/s 736 mmHg 90%
    15:00 -14°C° 0 mm 4 m/s 736 mmHg 90%
    16:00 -16°C° 0 mm 4 m/s 737 mmHg 91%
    17:00 -17°C° 0 mm 4 m/s 737 mmHg 91%
    18:00 -17°C° 0 mm 3 m/s 737 mmHg 93%
    19:00 -19°C° 0 mm 3 m/s 738 mmHg 94%
    20:00 -19°C° 0 mm 2 m/s 738 mmHg 95%
    21:00 -19°C° 0 mm 2 m/s 738 mmHg 96%
    22:00 -19°C° 0 mm 2 m/s 738 mmHg 97%
    23:00 -17°C° 0 mm 1 m/s 738 mmHg 98%

    22 Ianuarie, Marţi

    Timp Temperatura Precipitaţii Vânt Presiune Umiditate
    00:00 -18°C° 0.1 mm 2 m/s 738 mmHg 97%
    01:00 -16°C° 0.1 mm 2 m/s 738 mmHg 96%
    02:00 -15°C° 0.1 mm 2 m/s 738 mmHg 96%
    03:00 -13°C° 0.1 mm 2 m/s 738 mmHg 95%
    04:00 -12°C° 0.1 mm 2 m/s 738 mmHg 94%
    05:00 -10°C° 0.1 mm 2 m/s 738 mmHg 92%
    06:00 -10°C° 0 mm 2 m/s 738 mmHg 93%
    07:00 -10°C° 0 mm 2 m/s 738 mmHg 93%
    08:00 -12°C° 0 mm 2 m/s 738 mmHg 93%
    09:00 -12°C° 0 mm 2 m/s 738 mmHg 93%
    10:00 -12°C° 0 mm 2 m/s 739 mmHg 92%
    11:00 -10°C° 0 mm 2 m/s 739 mmHg 92%
    12:00 -10°C° 0 mm 2 m/s 739 mmHg 91%
    13:00 -10°C° 0 mm 2 m/s 739 mmHg 91%
    14:00 -10°C° 0 mm 2 m/s 739 mmHg 90%
    15:00 -10°C° 0 mm 1 m/s 739 mmHg 92%
    16:00 -11°C° 0 mm 1 m/s 739 mmHg 93%
    17:00 -12°C° 0 mm 0 m/s 739 mmHg 95%
    18:00 -12°C° 0 mm 1 m/s 739 mmHg 96%
    19:00 -12°C° 0 mm 1 m/s 739 mmHg 96%
    20:00 -12°C° 0 mm 1 m/s 739 mmHg 97%
    21:00 -14°C° 0 mm 1 m/s 739 mmHg 97%
    22:00 -15°C° 0 mm 1 m/s 740 mmHg 97%
    23:00 -16°C° 0 mm 1 m/s 740 mmHg 98%
    Arată mai mult